www.pogodaiklimat.ru

Погода и климат >> Архив погоды >> Россия >> Ямало-Ненецкий АО >> Пангоды


ПОГОДА в Пангодах

  • Прогноз погоды в Пангодах
  • Монитор погоды в Пангодах

АРХИВ ПОГОДЫ в Пангодах

Время (UTC), дата Ветер
(напр.,м/с)
 
Видим.   Явления Облачность Т
(С)
Тd
(С)
f
(%)
Тe
(С)
Тes
(С)
Комфортность P
(гПа)
Po
(гПа)
Тmin
(С)
Tmax
(С)
R
(мм)
R24
(мм)
S
(см)
00 18.03 Ю 1 20 км 10/0
[Cs]
-19.7 -21.4 86 -23 -23 1027.0 1019.8
03 18.03 штиль 0 50 км 10/0
[As trans]
-16.1 -17.8 87 -16 -16 1026.2 1019.2 -24.4 90
06 18.03 Ю 2 50 км 10/0
[As trans]
-9.2 -15.1 62 -14 -12 1025.5 1018.6
09 18.03 ЮЗ 1 50 км 10/0
[As trans Ci fib]
-4.1 -11.3 57 -6 -4 1024.6 1017.9
12 18.03 ЮЗ 3 50 км 8/0
[Cc]
-4.8 -11.6 59 -10 -10 1023.8 1017.0
15 18.03 ЮЗ 3 20 км 10/8 600 м
[Sc Ac As]
-5.9 -10.4 70 -11 -11 1023.7 1016.9 -3.5
18 18.03 ЮЗ 1 20 км 10/6 300 м
[Sc Ci fib]
-10.1 -11.3 91 -12 -12 1023.2 1016.4
21 18.03 З 1 20 км 10/10 300 м
[Sc]
-8.7 -10.0 90 -11 -11 1023.4 1016.6
00 19.03 З 2 20 км 6/4 600 м
[Sc Ci fib]
-10.8 -11.4 95 -15 -15 1023.9 1017.0
03 19.03 З 1 50 км ледяные иглы {снег} 8/0
[Cs]
-11.4 -12.3 93 -14 -13 1024.6 1017.7 -12.9 0.0 88
06 19.03 ЮЗ 2 50 км {снег} 10/0
[Ac lent Cs]
-6.4 -9.5 79 -11 -8 1025.0 1018.2
09 19.03 З 3 50 км 3/0
[Ci fib]
-0.4 -6.4 64 -5 -2 1024.7 1018.0
12 19.03 ЮЗ 3 50 км 4/0
[Ci fib]
-2.3 -6.9 71 -7 -7 1024.6 1018.0
15 19.03 ЮЗ 2 20 км 8/3 600 м
[Sc Ci fib]
-11.2 -11.8 95 -16 -16 1024.8 1017.9 -0.1 0.0
18 19.03 ЮЗ 2 20 км 10/0
[Cs]
-12.8 -13.6 94 -17 -17 1024.0 1017.0
21 19.03 Ю 1 20 км 10/0
[As trans Ci fib]
-12.9 -13.7 94 -15 -15 1022.8 1015.8
00 20.03 Ю 2 20 км 10/0
[As trans]
-8.6 -9.1 96 -13 -13 1020.8 1014.0
03 20.03 Ю 2 50 км 10/4 300 м
[Sc As op]
-4.6 -5.1 96 -9 -9 1018.2 1011.5 -15.0 86
06 20.03 Ю 3 50 км 10/3 600 м
[Sc Ac As Cs]
-0.2 -3.8 77 -5 -4 1015.6 1009.0
09 20.03 ЮЗ 4 50 км 10/0
[Ac As Cs]
+1.6 -4.0 66 -3 -2 1012.6 1006.1
12 20.03 ЮЗ 5 50 км 10/0
[Ac As]
+0.7 -5.0 66 -5 -5 1010.4 1003.9
15 20.03 ЮЗ 6-10
{10}
20 км 10/5 600 м
[Sc Ac As]
+0.1 -5.3 67 -6 -6 1008.5 1002.0 +2.6
18 20.03 ЮЗ 4
{10}
1000 м снег 10/0 300 м
[As op]
-2.1 -2.1 100 -8 -8 1007.4 1000.8
21 20.03 ЮЗ 3 4000 м слаб. снег 10/0 300 м
[As op]
-1.5 -1.5 100 -7 -7 1006.6 1000.1
00 21.03 ЮЗ 3 20 км {снег} 10/0 300 м
[As op]
-1.2 -1.2 100 -6 -6 1006.1 999.6
03 21.03 З 2 50 км 10/10 300 м
[Sc]
-0.2 -0.2 100 -4 -4 1005.8 999.3 -2.2 2 86
06 21.03 З 3 50 км 10/10 300 м
[Sc]
+1.3 -1.0 85 -3 -3 1006.0 999.5
09 21.03 З 3 50 км 9/9 600 м
[Sc]
+1.9 -1.6 78 -2 -2 1006.8 1000.3
12 21.03 ЮЗ 2 50 км 6/6 600 м
[Sc]
+1.1 -2.8 75 -2 -2 1007.3 1000.8
15 21.03 ЮЗ 3 20 км 10/10 600 м
[Sc]
-0.3 -2.4 86 -5 -5 1007.5 1001.0 +3.2
18 21.03 ЮЗ 2 20 км 9/4 300 м
[Sc Ac lent Cc]
-0.9 -2.4 90 -5 -5 1006.7 1000.2
21 21.03 З 1 20 км 10/10 300 м
[Sc]
-1.4 -1.8 97 -4 -4 1006.7 1000.1
00 22.03 З 1 20 км 10/10 300 м
[St]
-2.5 -2.5 100 -5 -5 1006.8 1000.2
03 22.03 СЗ 1 4000 м слаб. ливневой снег 10/10 300 м
[Cb cap]
-1.7 -2.0 98 -4 -4 1007.8 1001.3 -3.3 2 85
06 22.03 З 2 50 км {ливн. осадки} 9/3 300 м
[Cb cap Ac As Ci fib]
-1.0 -4.4 78 -5 -3 1009.3 1002.7
09 22.03 СЗ 1 50 км 8/0
[Cs]
-1.3 -5.2 75 -3 0 1011.3 1004.7
12 22.03 В 1 50 км 10/4 300 м
[Sc Ac As Cc]
-4.8 -6.6 87 -7 -7 1012.5 1005.8
15 22.03 В 1 20 км в посл. час ливневой снег 10/6 600 м
[Cb cap Ac und]
-7.0 -7.8 94 -9 -9 1013.5 1006.8 +0.6 0.3
18 22.03 ЮЗ 1 20 км {ливн. осадки} 10/6 600 м
[Cb cap Ac und]
-5.9 -6.5 96 -8 -8 1014.2 1007.5
21 22.03 ЮЗ 1 2000 м дымка 10/10 100 м
[St]
-9.0 -9.3 98 -11 -11 1015.2 1008.4
00 23.03 Ю 1 1000 м в посл. час туман 10/10 100 м
[St]
-12.3 -13.1 94 -15 -15 1015.3 1008.4
03 23.03 штиль 0 1000 м дымка {туман} [диам. изморози 4 мм] 10/0
[Cs]
-10.2 -10.8 95 -11 -9 1015.4 1008.6 -13.0 0.0 83
06 23.03 Ю 2 4000 м слаб. ливневой снег {туман} [диам. изморози 4 мм] 10/8 300 м
[Cb cap Ac As]
-4.2 -5.0 94 -9 -8 1014.7 1008.0
09 23.03 Ю 2 50 км {ливн. осадки} [диам. изморози 0 мм] 10/5 300 м
[Cb cap As trans Cc]
0.0 -4.6 71 -3 -3 1013.2 1006.7
12 23.03 ЮЗ 1 2000 м ливневой снег 10/8 300 м
[Cb cap Ac As]
-0.4 -1.9 90 -3 -3 1013.0 1006.4
15 23.03 ЮЗ 2 20 км в посл. час ливневой снег 10/10 300 м
[Cb cap]
-2.7 -2.7 100 -7 -7 1013.1 1006.5 +1.6 2
18 23.03 З 1 20 км в посл. час ливневой снег 10/10 300 м
[Cb cap]
-2.7 -2.7 100 -5 -5 1013.1 1006.3
21 23.03 З 1 20 км 10/10 300 м
[Sc]
-2.9 -2.9 100 -5 -5 1012.8 1006.2
00 24.03 СЗ 2 20 км 10/10 300 м
[Sc]
-4.3 -4.3 100 -9 -9 1013.8 1007.1
03 24.03 С 1 20 км в посл. час снег 10/10 1000 м
[Sc]
-5.1 -5.1 100 -8 -8 1014.6 1007.9 -5.2 0.7 87
06 24.03 СЗ 1 20 км {снег} 10/10 600 м
[Sc]
-3.3 -5.4 85 -6 -6 1015.2 1008.6
09 24.03 ЮЗ 2 20 км 10/10 1000 м
[Sc]
-3.1 -5.6 83 -7 -7 1015.3 1008.7
12 24.03 ЮЗ 3 50 км 10/3 600 м
[Sc Cs]
-6.2 -7.8 88 -12 -12 1015.0 1008.3
15 24.03 Ю 2 20 км 10/10 300 м
[St]
-7.4 -7.9 96 -12 -12 1015.0 1008.2 -3.0
18 24.03 ЮЗ 2 20 км 10/8 300 м
[Sc Ci fib]
-6.3 -7.7 90 -11 -11 1013.8 1007.1

 

Местоположение метеостанции Пангоды (Ямало-Ненецкий АО, Россия): широта 65.83 долгота 74.50 высота над уровнем моря 52 м.

В архиве по умолчанию представлена погода в Пангодах за последнюю неделю. Архивные данные за месяц целиком и за предыдущие месяцы, начиная с января 2011 года, Вы можете получить, выбрав интересующий диапазон дат из раскрывающегося списка и нажав кнопку "Ввод!".


*Определитесь, кто Вы:
робот инопланетянин человек

Внимание! Время в таблицах - всемирное. Для получения местного времени необходимо прибавить поправку, которая равна 5 ч.

Смотрите также архив погоды в соседних городах и на ближайших метеорологических станциях:

Погода в Надыме (Ямало-Ненецкий АО, Россия) (93 км)
Погода в Новом Уренгое (Ямало-Ненецкий АО, Россия) (108 км)
Погода в Ныде (Ямало-Ненецкий АО, Россия) (113 км)
Погода в Уренгое (Ямало-Ненецкий АО, Россия) (178 км)
Погода в Тарко-Сале (Ямало-Ненецкий АО, Россия) (184 км)
Погода в Лонг-Югане (Ямало-Ненецкий АО, Россия) (203 км)
Погода в Новом Порте (Ямало-Ненецкий АО, Россия) (218 км)
Погода в Тазовском (Ямало-Ненецкий АО, Россия) (261 км)
Погода в Полуе (Ямало-Ненецкий АО, Россия) (265 км)
Погода в Ноябрьске (Ямало-Ненецкий АО, Россия) (304 км)

Пояснения к столбцам:

Ветер - указаны скорость ветра в м/с - средняя за 10 мин, порывы в срок и между сроками (в фигурных скобках) и направление, откуда дует ветер: С - северный, СВ - северо-восточный, В - восточный, ЮВ - юго-восточный, Ю - южный, ЮЗ - юго-западный, З - западный, СЗ - северо-западный.
Видимость - горизонтальная дальность видимости в метрах или километрах. При видимости от 1 до 10 км при отсутствии осадков обычно наблюдается дымка, при ухудшении видимости до 1 км и менее - туман. В сухую погоду видимость может ухудшаться дымом, пылью или мглою.
Явления - указаны атмосферные явления, наблюдавшиеся в срок или в последний час перед сроком; фигурными скобками обозначены явления, наблюдавшиеся между сроками (за 1-3 часа до срока); квадратными скобками обозначены град или гололедные отложения с указанием их диаметра в мм.
Облачность - указаны через наклонную черту общая и нижняя облачность в баллах и высота нижней границы облаков в метрах; квадратными скобками обозначены формы облаков: Ci - перистые, Cs - перисто-слоистые, Cc - перисто-кучевые, Ac - высококучевые, As - высокослоистые, Sc - слоисто-кучевые, Ns - слоисто-дождевые, Cu - кучевые, Cb - кучево-дождевые. Подробнее классификацию облаков см. в Атласе облаков (PDF).
T - Температура воздуха - температура, измеренная на высоте 2 м над землей.
Td - Температура точки росы - температура, при понижении до которой содержащийся в воздухе водяной пар достигнет насыщения.
f - Относительная влажность воздуха - влажноcть воздуха, измеренная на высоте 2 м над землей.
Te - Эффективная температура - температура, которую ощущает одетый по сезону человек в тени. Характеристика душности погоды. При расчете учитывается влияние влажности воздуха и скорости ветра на теплоощущения человека.
Tes - Эффективная температура на солнце - температура, которую ощущает человек, с поправкой на солнечный нагрев. Характеристика знойности погоды. Зависит от высоты солнца над горизонтом, облачности и скорости ветра. Ночью, в пасмурную погоду, а также при ветре 12 м/с и более поправка равна нулю.
P - Атмосферное давление - приведенное к уровню моря атмосферное давление.
Po - Атмосферное давление - измеренное на уровне метеостанции атмосферное давление.
Tmin - Минимальная температура - минимум температуры воздуха на высоте 2 м над землей.
Tmax - Максимальная температура - максимум температуры воздуха на высоте 2 м над землей.
R - Количество осадков - Количество выпавших осадков за период времени, мм. При наведении курсора мыши на число - период времени, за который выпало указанное количество осадков.
R24 - Количество осадков - Количество выпавших осадков за 24 часа, мм.
S - Снежный покров - Высота снежного покрова, см. При наведении курсора мыши на число - состояние снежного покрова и степень покрытия местности в баллах.